Weather History for Fitchburg, MA

Change the Weather History Date:

Tuesday, February 11, 2014

  Actual Average (KORH) Record (KORH)
Temperature  
Mean Temperature 11 °F 26 °F  
Max Temperature 24 °F 34 °F 59 °F (1981)
Min Temperature -2 °F 19 °F -10 °F (1962)
Degree Days  
Heating Degree Days 54 39  
Month to date heating degree days 435  
Since 1 July heating degree days 4208  
Cooling Degree Days 0 0  
Month to date cooling degree days 0  
Year to date cooling degree days 0  
Moisture  
Dew Point -1 °F    
Average Humidity 61    
Maximum Humidity 83    
Minimum Humidity 35    
Precipitation  
Precipitation 0.00 in 0.11 in 0.85 in (1981)
Month to date precipitation 1.24  
Year to date precipitation 4.73  
Sea Level Pressure  
Sea Level Pressure 30.32 in    
Wind  
Wind Speed 4 mph (NW)    
Max Wind Speed 15 mph    
Max Gust Speed 23 mph    
Visibility 9 miles    
Events      
T = Trace of Precipitation, MM = Missing Value Source: NWS Daily Summary

Daily Weather History Graph

Daily Weather History Graph

Search for Another Location

Airport:

Trip Planner

Search our weather history database for the weather conditions in past years. The results will help you decide how hot, cold, wet, or windy it might be!

Date:

Astronomy

Feb. 11, 2014 Rise Set
Actual Time 6:49 AM EST 5:13 PM EST
Civil Twilight 6:20 AM EST 5:43 PM EST
Nautical Twilight 5:46 AM EST 6:16 PM EST
Astronomical Twilight 5:14 AM EST 6:48 PM EST
Moon 2:30 PM EST (2/11) 4:26 AM EST (2/11)
Length of Visible Light 11h 22m
Length of Day
10h 24m
Waxing Gibbous, 90% of the Moon is Illuminated
Feb 11
Waxing Gibbous
Feb 14
Full
Feb 22
Last Quarter
Mar 1
New
Mar 8
First Quarter

Hourly Weather History & Observations

Time (EST) Temp. Windchill Dew Point Humidity Pressure Visibility Wind Dir Wind Speed Gust Speed Precip Events Conditions
12:52 AM 5.0 °F - -0.0 °F 80% 30.24 in 8.0 mi Calm Calm - N/A   Clear
1:52 AM 1.9 °F - -4.0 °F 76% 30.24 in 8.0 mi Calm Calm - N/A   Clear
2:52 AM 1.9 °F -7.6 °F -2.0 °F 83% 30.25 in 8.0 mi NW 4.6 mph - N/A   Clear
3:52 AM 1.9 °F -5.6 °F -2.9 °F 80% 30.25 in 8.0 mi West 3.5 mph - N/A   Clear
4:52 AM -0.0 °F - -6.0 °F 76% 30.26 in 8.0 mi Calm Calm - N/A   Clear
5:52 AM -2.9 °F - -9.0 °F 75% 30.28 in 8.0 mi Calm Calm - N/A   Clear
6:52 AM -0.0 °F - -5.1 °F 79% 30.29 in 6.0 mi Calm Calm - N/A   Haze
7:52 AM 10.9 °F 4.7 °F 3.9 °F 73% 30.30 in 10.0 mi North 3.5 mph - N/A   Clear
8:52 AM 16.0 °F 7.4 °F 5.0 °F 62% 30.31 in 10.0 mi NW 5.8 mph - N/A   Clear
9:52 AM 18.0 °F 4.2 °F 1.0 °F 48% 30.32 in 10.0 mi WNW 13.8 mph 21.9 mph N/A   Clear
10:52 AM 19.9 °F 7.3 °F 1.0 °F 44% 30.32 in 10.0 mi NW 12.7 mph - N/A   Clear
11:52 AM 21.9 °F 11.7 °F 1.0 °F 40% 30.30 in 10.0 mi NW 9.2 mph - N/A   Clear
12:52 PM 23.0 °F 10.6 °F -0.0 °F 37% 30.28 in 10.0 mi WNW 13.8 mph 23.0 mph N/A   Clear
1:52 PM 24.1 °F 12.0 °F -0.0 °F 35% 30.26 in 10.0 mi NW 13.8 mph 18.4 mph N/A   Clear
2:52 PM 24.1 °F 12.5 °F -0.0 °F 35% 30.27 in 10.0 mi NW 12.7 mph - N/A   Clear
3:52 PM 23.0 °F 10.1 °F -0.9 °F 35% 30.28 in 10.0 mi NNW 15.0 mph - N/A   Clear
4:52 PM 21.0 °F 9.3 °F -0.9 °F 38% 30.31 in 10.0 mi NNW 11.5 mph - N/A   Clear
5:52 PM 19.0 °F 10.0 °F -0.9 °F 42% 30.34 in 10.0 mi NNW 6.9 mph - N/A   Clear
6:52 PM 10.9 °F 4.7 °F -0.9 °F 59% 30.37 in 10.0 mi WNW 3.5 mph - N/A   Clear
7:52 PM 9.0 °F -0.9 °F -0.0 °F 67% 30.38 in 10.0 mi NNW 5.8 mph - N/A   Clear
8:52 PM 10.0 °F - -0.0 °F 64% 30.41 in 10.0 mi Calm Calm - N/A   Clear
9:52 PM 7.0 °F - -0.0 °F 73% 30.43 in 10.0 mi Calm Calm - N/A   Clear
10:52 PM 3.9 °F -5.3 °F -2.0 °F 76% 30.44 in 10.0 mi WNW 4.6 mph - N/A   Clear
11:52 PM 1.9 °F -7.6 °F -2.9 °F 80% 30.46 in 10.0 mi NW 4.6 mph - N/A   Clear